Погода в Боготоле

Погода в Боготоле : погода сейчас, прогноз погоды и архив. Всё, что Вы хотите узнать о погоде в Боготоле!

Хотите узнать прогноз погоды в Боготоле? Тогда Вам сюда: Погода в Боготоле

Поиск расширенной информации на нашем сайте:

Полезная информация: Что такое внутренний подтягивающий резистор.

Другие новости

Новости СМИ2

Главная страница сайта

Новости сайта

02.10.2013

Напоминаем, что на нашем новом сайте вы можете получить высокодетализированные прогнозы погоды по пунктам России, СНГ и мира (включающие важные для авиации метеовеличины, такие как направление и скорость ветра, видимость, явления погоды, количество и форма облачности, нижняя и верхняя граница облачности), а также ознакомиться с разнообразными материалами по авиационной метеорологии и подборкой полезных ссылок на эту тему.

Сайт Метеоцентр.Азия посвящён разработке технологий оптимизации авиаметеорологического обслуживания, включая проектирование и перспективное создание нескольких автоматизированных авиаметеорологических систем:
- система выпуска высокодетальных прогностических карт явлений погоды для нижнего воздушного пространства по России и ближнему зарубежью;
- система верификации прогнозов TAF (выпускаемых синоптиками официальных АМСГ РФ и ближнего зарубежья) и AUTOTAF (выпускаемых сайтом Метеоцентр.Азия) - выявление ошибок, онлайн-сопоставление с фактической погодой METAR, автоматическое внесение коррективов в прогнозы при резком отклонении фактической погоды от прогноза, подсчёт оправдываемости прогнозов по элементам и в целом;
- система обработки, анализа и отображения авиаметеорологической информации для применения провайдерами метеорологической информации.

Рекомендуем: автополив газона

Погода в Боготоле - сегодня

Время (UTC), дата Ветер
(°,м/с) 
Видим.   Явления Облачность Т
(°С)
Тd
(°С)
f(%) Тe
(°С)
Pmin
(гПа)
dP
(гПа)
Po
(мм)
O2
(г/м3)
Тmin Tmax R s Состояние
почвы
06 26.05.17 260 (З) 5-11{15}  20000 м  {ливн. осадки}  8/8 600 м кучево-дожд. 
[Cb cap]
+9.3 +0.3 53 +8  1015.1  3.3  735  286           
09 26.05.17 270 (З) 5-10{12}  20000 м    8/8 1000 м 
[Cu med, cong]
+10 -1.2 46 +9  1017.6  2.5  737  287           
12 26.05.17 270 (З) 3{11}  20000 м    8/5 600 м кучево-дожд., средняя 
[Cb cap|Ac cuf]
+9.3 -1.6 46 +9  1019.7  1.9  738  288    +10.8  0.0     
15 26.05.17 280 (З) 20000 м    8/8 600 м кучево-дожд. 
[Cb cap]
+6.6 +1.9 72 +6  1022  1.9  740  291           
18 26.05.17 280 (З) 20000 м  в посл. час ливневой дождь  9/6 600 м кучево-дожд., средняя 
[Cb cap|Ac trans]
+4.4 +1.6 82 +4  1024.1  1.7  741  294           
21 26.05.17 290 (З) 20000 м    8/8 600 м кучево-дожд. 
[Cb cap]
+3 +0.2 82 +2  1026.9  2.6  743  296           
00 27.05.17 310 (СЗ) 20000 м    6/6 600 м кучево-дожд. 
[Cb cap]
+3 +0.6 84 +4  1029.7  2.7  745  297  +2.2    0.0     
03 27.05.17 130 (ЮВ) 20000 м    4/4 1000 м 
[Cu hum]
+7.1 -4.5 43 +8  1029.7  2.7  745  293           
06 27.05.17 180 (Ю) 20000 м    ясно 
+10.9 -4.5 34 +11  1027.4  -1.7  744  289           
09 27.05.17 170 (Ю) 20000 м    6/0 верхняя 
[Ci fib]
+14 -5 26 +15  1023.9  -2.9  742  285           
12 27.05.17 190 (Ю) 20000 м    8/0 верхняя 
[Ci fib]
+15.4 -7.6 20 +16  1021.2  -2.4  740  283    +15.8       
15 27.05.17 тихо ()   20000 м    4/3 2000 м средняя, верхняя 
[Ac lent|Ci fib]
+8.6 +0.8 58 +9  1020.9  -1.1  739  289           
18 27.05.17 тихо ()   20000 м    ясно 
+5 -0.6 67 +5  1020.1  -1.3  738  292           
21 27.05.17 тихо ()   20000 м    ясно 
+5.6 +0.2 68 +6  1018.9  -1  737  291           
00 28.05.17 140 (ЮВ) 20000 м    ясно 
+9.8 +2.2 59 +10  1018.1  -0.3  737  286  +3         
03 28.05.17 110 (В) 20000 м    3/0 верхняя 
[Ci fib]
+17.7 +1.5 34 +18  1015.5  -1.6  736  278           
06 28.05.17 100 (В) 20000 м    4/0 верхняя 
[Ci fib]
+22.4 +2.7 27 +22  1012.6  -2.3  734  273           
09 28.05.17 120 (ЮВ) 20000 м    8/0 верхняя 
[Ci fib]
+24.7 +1.3 22 +25  1010.1  -2.1  733  271           
12 28.05.17 110 (В) 20000 м    8/0 верхняя 
[Ci fib]
+22.9 -0.1 22 +23  1008.6  -1.7  731  272    +25       
15 28.05.17 060 (СВ) 20000 м    8/0 верхняя 
[Ci fib]
+16.6 +2.7 39 +18  1008.3  -0.9  731  277           
18 28.05.17 100 (В) 20000 м    6/0 верхняя 
[Ci fib]
+14.4 +0.7 39 +15  1006.9  -1.6  730  279           
21 28.05.17 тихо ()   20000 м    4/0 верхняя 
[Ci fib]
+12.9 +1.8 47 +13  1005.8  -1.3  729  280           
00 29.05.17 160 (Ю) 20000 м    8/5 2000 м средняя, верхняя 
[Ac lent|Ci fib]
+15.6 +2.5 41 +16  1005.2  -0.3  728  277  +11.9         
03 29.05.17 160 (Ю) 20000 м    9/3 1000 м средняя, верхняя 
[Sc|Ac cuf|Ci sp]
+22.9 +7.8 38 +23  1003.5  -0.8  728  269           
12 29.05.17 210 (ЮЗ) 3{14}  20000 м  {ливн. осадки}  8/5 600 м кучево-дожд., верхняя 
[Cb cap|Ci ing]
+22.8 +8.9 41 +23  1003.8  -0.6  728  269    +25  0.0     
Время (UTC), дата Ветер
(°,м/с) 
Видим.   Явления Облачность Т
(°С)
Тd
(°С)
f(%) Тe
(°С)
Pmin
(гПа)
dP
(гПа)
Po
(мм)
O2
(г/м3)
Тmin Tmax R s Состояние
почвы

Для получения пояснительной информации подведите курсор к названию столбца.

ПОГОДА в Боготоле - архив

Всё, что Вы хотите узнать о погоде в Боготоле - удобно и подробно!

Выберите нужную дату (начиная с 1 января 2015* года) и нажмите кнопку "Найти".
Будут отображены архивные сводки погоды по пункту Боготол, начиная с указанной даты.


Отображать данные в формате CSV (для использования в таблицах Excel)


Внимание! Наш архив погоды предназначен исключительно для личного некоммерческого использования в познавательных целях. Если Вам необходимы официальные справки о состоянии погоды (для производственных, юридических, коммерческих и т.п. целей), обращайтесь в органы Росгидромета.

*Примечание: данная дата относится к архиву по метеостанциям СССР (Россия, СНГ, Балтия).
Архив по метеостанциям Зарубежной Европы и Азии (кроме Китая) хранится 10 дней, по другим регионам земного шара (Китай, Африка, Америка, Австралия, Океания) - 1 день.

Боготол - район местоположения метеостанции


Название, широта, долгота, высота метеостанции:
Боготол 56.2°ш. 89.6°д. 291 м над ур. моря [Российская Федерация]

Дополнительная информация

В oтличие oт бoльшинства пoгoдных сайтoв мы публикуем пoдрoбную метеoинфoрмацию в детальнoм прoфессиoнальнoм фoрмате.

Характеристики температуры и влажнoсти вoздуха измеряются на высoте 2 м в тени вдали oт зданий и деревьев.
Скoрoсть ветра измеряется на высoте 10 м (на урoвне рoста челoвека скoрoсть ветра ниже в 1.5-2 раза). Если метеoстанция нахoдится в гoрoде или в лесу, тo скoрoсть ветра занижена на 2-4 м/с пo сравнению с oткрытым местoм. Скoрoсть ветра над акватoриями крупных рек и oзёр, а также на вершинах хoлмoв на 2-5 м/с выше, чем в oбычных услoвиях.
Атмoсфернoе давление в разных тoчках местнoсти мoжет значительнo oтличаться oт давления на метеoстанции, в зависимoсти oт услoвий рельефа (при пoдъёме на 10 м давление пoнижается примернo на 1 мм рт.ст.).